Time,TemperatureF,DewpointF,PressureIn,WindDirection,WindDirectionDegrees,WindSpeedMPH,WindSpeedGustMPH,Humidity,HourlyPrecipIn,Conditions,Clouds,dailyrainin,SoftwareType,DateUTC
2013-02-17 00:06:00,17.5,10.0,30.09,NNW,332,7.0,23.0,72,0.00,,,0.00,weatherlink.com 1.10,2013-02-17 05:06:00,
2013-02-17 00:21:00,17.4,10.0,30.09,ENE,67,7.0,16.0,73,0.00,,,0.00,weatherlink.com 1.10,2013-02-17 05:21:00,
2013-02-17 00:36:00,17.3,11.0,30.09,NNW,328,4.0,13.0,75,0.00,,,0.00,weatherlink.com 1.10,2013-02-17 05:36:00,
2013-02-17 00:51:00,16.8,10.0,30.09,NNE,12,6.0,15.0,73,0.00,,,0.00,weatherlink.com 1.10,2013-02-17 05:51:00,
2013-02-17 01:07:00,16.8,10.0,30.09,WNW,294,0.0,12.0,73,0.00,,,0.00,weatherlink.com 1.10,2013-02-17 06:07:00,
2013-02-17 01:22:00,16.7,9.0,30.10,NW,317,5.0,22.0,71,0.00,,,0.00,weatherlink.com 1.10,2013-02-17 06:22:00,
2013-02-17 01:37:00,16.3,8.0,30.10,NNE,17,2.0,19.0,71,0.00,,,0.00,weatherlink.com 1.10,2013-02-17 06:37:00,
2013-02-17 01:52:00,16.0,8.0,30.10,NW,316,7.0,25.0,71,0.00,,,0.00,weatherlink.com 1.10,2013-02-17 06:52:00,
2013-02-17 02:07:00,15.8,8.0,30.10,North,5,5.0,21.0,72,0.00,,,0.00,weatherlink.com 1.10,2013-02-17 07:07:00,
2013-02-17 02:22:00,15.5,8.0,30.08,NNW,339,6.0,17.0,71,0.00,,,0.00,weatherlink.com 1.10,2013-02-17 07:22:00,
2013-02-17 02:37:00,15.4,8.0,30.07,NW,312,8.0,31.0,73,0.00,,,0.00,weatherlink.com 1.10,2013-02-17 07:37:00,
2013-02-17 02:52:00,15.1,8.0,30.06,NNW,347,8.0,33.0,72,0.00,,,0.00,weatherlink.com 1.10,2013-02-17 07:52:00,
2013-02-17 03:07:00,14.7,8.0,30.08,WNW,294,5.0,28.0,74,0.00,,,0.00,weatherlink.com 1.10,2013-02-17 08:07:00,
2013-02-17 03:22:00,14.4,8.0,30.07,ENE,67,7.0,32.0,77,0.00,,,0.00,weatherlink.com 1.10,2013-02-17 08:22:00,
2013-02-17 03:37:00,14.1,8.0,30.07,NNW,346,8.0,26.0,78,0.00,,,0.00,weatherlink.com 1.10,2013-02-17 08:37:00,
2013-02-17 03:52:00,13.9,9.0,30.08,NNW,340,5.0,18.0,82,0.00,,,0.00,weatherlink.com 1.10,2013-02-17 08:52:00,
2013-02-17 04:07:00,14.0,8.0,30.08,NNW,329,5.0,27.0,78,0.00,,,0.00,weatherlink.com 1.10,2013-02-17 09:07:00,
2013-02-17 04:22:00,14.1,7.0,30.10,NE,40,4.0,24.0,73,0.00,,,0.00,weatherlink.com 1.10,2013-02-17 09:22:00,
2013-02-17 04:37:00,13.9,6.0,30.10,NW,326,18.0,30.0,70,0.00,,,0.00,weatherlink.com 1.10,2013-02-17 09:37:00,
2013-02-17 04:52:00,13.7,5.0,30.11,WNW,299,10.0,26.0,67,0.00,,,0.00,weatherlink.com 1.10,2013-02-17 09:52:00,
2013-02-17 05:07:00,13.6,6.0,30.11,North,355,10.0,30.0,71,0.00,,,0.00,weatherlink.com 1.10,2013-02-17 10:07:00,
2013-02-17 05:22:00,13.5,5.0,30.13,NNW,331,11.0,25.0,70,0.00,,,0.00,weatherlink.com 1.10,2013-02-17 10:22:00,
2013-02-17 05:38:00,13.5,4.0,30.13,NNW,339,7.0,30.0,67,0.00,,,0.00,weatherlink.com 1.10,2013-02-17 10:38:00,
2013-02-17 05:53:00,13.5,5.0,30.14,NNW,340,8.0,25.0,69,0.00,,,0.00,weatherlink.com 1.10,2013-02-17 10:53:00,
2013-02-17 06:07:00,13.5,5.0,30.14,NE,44,13.0,17.0,70,0.00,,,0.00,weatherlink.com 1.10,2013-02-17 11:07:00,
2013-02-17 06:23:00,13.6,6.0,30.14,NW,317,5.0,26.0,70,0.00,,,0.00,weatherlink.com 1.10,2013-02-17 11:23:00,
2013-02-17 06:37:00,13.7,6.0,30.14,NNW,329,6.0,26.0,72,0.00,,,0.00,weatherlink.com 1.10,2013-02-17 11:37:00,
2013-02-17 06:53:00,13.7,7.0,30.14,North,351,1.0,27.0,73,0.00,,,0.00,weatherlink.com 1.10,2013-02-17 11:53:00,
2013-02-17 07:08:00,13.9,6.0,30.13,NNW,335,7.0,30.0,70,0.00,,,0.00,weatherlink.com 1.10,2013-02-17 12:08:00,
2013-02-17 07:22:00,13.8,8.0,30.13,NNE,23,12.0,22.0,76,0.00,,,0.00,weatherlink.com 1.10,2013-02-17 12:22:00,
2013-02-17 07:37:00,13.9,8.0,30.13,NNW,338,12.0,30.0,78,0.00,,,0.00,weatherlink.com 1.10,2013-02-17 12:37:00,
2013-02-17 07:53:00,14.4,8.0,30.14,NW,318,15.0,44.0,75,0.00,,,0.00,weatherlink.com 1.10,2013-02-17 12:53:00,
2013-02-17 08:08:00,15.3,7.0,30.14,NW,307,7.0,33.0,70,0.00,,,0.00,weatherlink.com 1.10,2013-02-17 13:08:00,
2013-02-17 08:24:00,15.9,8.0,30.15,NNW,341,7.0,26.0,70,0.00,,,0.00,weatherlink.com 1.10,2013-02-17 13:24:00,
2013-02-17 08:38:00,15.5,9.0,30.16,NE,34,11.0,23.0,74,0.00,,,0.00,weatherlink.com 1.10,2013-02-17 13:38:00,
2013-02-17 08:53:00,16.2,9.0,30.18,NNE,17,8.0,32.0,72,0.00,,,0.00,weatherlink.com 1.10,2013-02-17 13:53:00,
2013-02-17 09:08:00,16.8,9.0,30.19,WNW,288,4.0,33.0,71,0.00,,,0.00,weatherlink.com 1.10,2013-02-17 14:08:00,
2013-02-17 09:23:00,17.2,9.0,30.20,South,178,4.0,22.0,70,0.00,,,0.00,weatherlink.com 1.10,2013-02-17 14:23:00,
2013-02-17 09:38:00,17.5,9.0,30.19,NNE,12,17.0,29.0,68,0.00,,,0.00,weatherlink.com 1.10,2013-02-17 14:38:00,
2013-02-17 09:53:00,17.8,9.0,30.21,NNW,338,4.0,25.0,68,0.00,,,0.00,weatherlink.com 1.10,2013-02-17 14:53:00,
2013-02-17 10:08:00,18.6,10.0,30.22,West,279,3.0,22.0,70,0.00,,,0.00,weatherlink.com 1.10,2013-02-17 15:08:00,
2013-02-17 10:24:00,19.3,11.0,30.23,NNE,32,6.0,26.0,70,0.00,,,0.00,weatherlink.com 1.10,2013-02-17 15:24:00,
2013-02-17 10:38:00,19.2,11.0,30.24,NW,326,4.0,20.0,70,0.00,,,0.00,weatherlink.com 1.10,2013-02-17 15:38:00,
2013-02-17 10:53:00,19.8,11.0,30.24,NE,34,5.0,20.0,69,0.00,,,0.00,weatherlink.com 1.10,2013-02-17 15:53:00,
2013-02-17 11:09:00,20.4,12.0,30.25,North,5,8.0,20.0,69,0.00,,,0.00,weatherlink.com 1.10,2013-02-17 16:09:00,
2013-02-17 11:23:00,20.8,12.0,30.26,WNW,298,10.0,30.0,68,0.00,,,0.00,weatherlink.com 1.10,2013-02-17 16:23:00,
2013-02-17 11:38:00,21.1,12.0,30.25,SW,225,8.0,25.0,68,0.00,,,0.00,weatherlink.com 1.10,2013-02-17 16:38:00,
2013-02-17 11:54:00,21.4,11.0,30.25,NW,318,8.0,26.0,65,0.00,,,0.00,weatherlink.com 1.10,2013-02-17 16:54:00,
2013-02-17 12:09:00,21.9,11.0,30.25,NW,318,9.0,30.0,64,0.00,,,0.00,weatherlink.com 1.10,2013-02-17 17:09:00,
2013-02-17 12:24:00,22.8,12.0,30.24,North,355,5.0,23.0,64,0.00,,,0.00,weatherlink.com 1.10,2013-02-17 17:24:00,
2013-02-17 12:39:00,23.5,13.0,30.24,West,260,5.0,24.0,64,0.00,,,0.00,weatherlink.com 1.10,2013-02-17 17:39:00,
2013-02-17 12:54:00,23.5,12.0,30.23,North,349,5.0,27.0,61,0.00,,,0.00,weatherlink.com 1.10,2013-02-17 17:54:00,
2013-02-17 13:09:00,24.0,12.0,30.24,NNE,22,16.0,22.0,60,0.00,,,0.00,weatherlink.com 1.10,2013-02-17 18:09:00,
2013-02-17 13:24:00,24.2,12.0,30.25,ESE,123,5.0,23.0,60,0.00,,,0.00,weatherlink.com 1.10,2013-02-17 18:24:00,
2013-02-17 13:39:00,25.1,12.0,30.24,NE,41,10.0,24.0,59,0.00,,,0.00,weatherlink.com 1.10,2013-02-17 18:39:00,
2013-02-17 13:54:00,25.2,11.0,30.25,SW,230,3.0,21.0,56,0.00,,,0.00,weatherlink.com 1.10,2013-02-17 18:54:00,
2013-02-17 14:09:00,25.3,13.0,30.25,North,355,11.0,22.0,59,0.00,,,0.00,weatherlink.com 1.10,2013-02-17 19:09:00,
2013-02-17 14:25:00,25.4,11.0,30.25,NW,319,5.0,24.0,54,0.00,,,0.00,weatherlink.com 1.10,2013-02-17 19:25:00,
2013-02-17 14:40:00,26.3,12.0,30.27,ENE,61,3.0,21.0,54,0.00,,,0.00,weatherlink.com 1.10,2013-02-17 19:40:00,
2013-02-17 14:55:00,26.3,11.0,30.27,WNW,282,9.0,24.0,52,0.00,,,0.00,weatherlink.com 1.10,2013-02-17 19:55:00,
2013-02-17 15:10:00,27.5,12.0,30.28,East,85,5.0,12.0,52,0.00,,,0.00,weatherlink.com 1.10,2013-02-17 20:10:00,
2013-02-17 15:25:00,26.9,9.0,30.28,NNE,26,12.0,20.0,48,0.00,,,0.00,weatherlink.com 1.10,2013-02-17 20:25:00,
2013-02-17 15:40:00,26.7,9.0,30.29,WSW,254,3.0,24.0,47,0.00,,,0.00,weatherlink.com 1.10,2013-02-17 20:40:00,
2013-02-17 15:55:00,27.3,10.0,30.30,SSW,198,1.0,16.0,49,0.00,,,0.00,weatherlink.com 1.10,2013-02-17 20:55:00,
2013-02-17 16:10:00,27.3,10.0,30.31,NW,307,6.0,15.0,48,0.00,,,0.00,weatherlink.com 1.10,2013-02-17 21:10:00,
2013-02-17 16:25:00,27.8,9.0,30.31,West,274,4.0,13.0,46,0.00,,,0.00,weatherlink.com 1.10,2013-02-17 21:25:00,
2013-02-17 16:40:00,27.1,8.0,30.32,West,279,10.0,22.0,45,0.00,,,0.00,weatherlink.com 1.10,2013-02-17 21:40:00,
2013-02-17 16:55:00,26.7,8.0,30.33,North,355,2.0,18.0,46,0.00,,,0.00,weatherlink.com 1.10,2013-02-17 21:55:00,
2013-02-17 17:14:00,26.7,8.0,30.33,West,259,8.0,17.0,46,0.00,,,0.00,weatherlink.com 1.10,2013-02-17 22:14:00,
2013-02-17 17:26:00,25.7,8.0,30.34,North,10,4.0,21.0,48,0.00,,,0.00,weatherlink.com 1.10,2013-02-17 22:26:00,
2013-02-17 17:41:00,24.6,8.0,30.35,NNE,30,3.0,10.0,50,0.00,,,0.00,weatherlink.com 1.10,2013-02-17 22:41:00,
2013-02-17 17:56:00,24.1,9.0,30.35,NE,51,2.0,16.0,52,0.00,,,0.00,weatherlink.com 1.10,2013-02-17 22:56:00,
2013-02-17 18:11:00,23.7,8.0,30.35,NNE,19,4.0,11.0,52,0.00,,,0.00,weatherlink.com 1.10,2013-02-17 23:11:00,
2013-02-17 18:26:00,23.5,9.0,30.36,West,265,7.0,15.0,54,0.00,,,0.00,weatherlink.com 1.10,2013-02-17 23:26:00,
2013-02-17 18:41:00,23.4,8.0,30.36,West,281,0.0,13.0,53,0.00,,,0.00,weatherlink.com 1.10,2013-02-17 23:41:00,
2013-02-17 18:56:00,23.3,9.0,30.36,ENE,72,8.0,14.0,54,0.00,,,0.00,weatherlink.com 1.10,2013-02-17 23:56:00,
2013-02-17 19:11:00,23.3,8.0,30.36,North,5,4.0,15.0,53,0.00,,,0.00,weatherlink.com 1.10,2013-02-18 00:11:00,
2013-02-17 19:26:00,23.2,8.0,30.36,NW,304,5.0,17.0,53,0.00,,,0.00,weatherlink.com 1.10,2013-02-18 00:26:00,
2013-02-17 19:41:00,23.3,8.0,30.37,NE,46,5.0,12.0,52,0.00,,,0.00,weatherlink.com 1.10,2013-02-18 00:41:00,
2013-02-17 19:56:00,23.3,8.0,30.38,North,10,4.0,13.0,52,0.00,,,0.00,weatherlink.com 1.10,2013-02-18 00:56:00,
2013-02-17 20:12:00,23.5,8.0,30.37,NNW,346,8.0,16.0,51,0.00,,,0.00,weatherlink.com 1.10,2013-02-18 01:12:00,
2013-02-17 20:27:00,23.5,7.0,30.38,NNW,338,4.0,17.0,50,0.00,,,0.00,weatherlink.com 1.10,2013-02-18 01:27:00,
2013-02-17 20:42:00,23.4,8.0,30.38,North,350,4.0,18.0,51,0.00,,,0.00,weatherlink.com 1.10,2013-02-18 01:42:00,
2013-02-17 20:57:00,23.4,8.0,30.39,WNW,301,11.0,13.0,52,0.00,,,0.00,weatherlink.com 1.10,2013-02-18 01:57:00,
2013-02-17 21:11:00,23.3,8.0,30.38,NNW,327,5.0,16.0,51,0.00,,,0.00,weatherlink.com 1.10,2013-02-18 02:11:00,
2013-02-17 21:27:00,23.3,8.0,30.39,NE,39,3.0,13.0,52,0.00,,,0.00,weatherlink.com 1.10,2013-02-18 02:27:00,
2013-02-17 21:42:00,23.2,8.0,30.39,ESE,116,0.0,13.0,52,0.00,,,0.00,weatherlink.com 1.10,2013-02-18 02:42:00,
2013-02-17 21:57:00,23.4,7.0,30.40,North,355,6.0,14.0,50,0.00,,,0.00,weatherlink.com 1.10,2013-02-18 02:57:00,
2013-02-17 22:12:00,23.2,7.0,30.41,NNE,33,4.0,12.0,50,0.00,,,0.00,weatherlink.com 1.10,2013-02-18 03:12:00,
2013-02-17 22:27:00,23.4,7.0,30.41,NW,321,6.0,12.0,49,0.00,,,0.00,weatherlink.com 1.10,2013-02-18 03:27:00,
2013-02-17 22:42:00,23.8,7.0,30.41,NW,310,20.0,20.0,49,0.00,,,0.00,weatherlink.com 1.10,2013-02-18 03:42:00,
2013-02-17 22:57:00,23.4,7.0,30.43,NNW,331,0.0,9.0,49,0.00,,,0.00,weatherlink.com 1.10,2013-02-18 03:57:00,
2013-02-17 23:13:00,23.2,7.0,30.42,WNW,295,4.0,13.0,49,0.00,,,0.00,weatherlink.com 1.10,2013-02-18 04:13:00,
2013-02-17 23:28:00,23.0,7.0,30.43,ENE,66,1.0,13.0,51,0.00,,,0.00,weatherlink.com 1.10,2013-02-18 04:28:00,
2013-02-17 23:43:00,22.9,7.0,30.43,NNE,30,0.0,6.0,51,0.00,,,0.00,weatherlink.com 1.10,2013-02-18 04:43:00,
2013-02-17 23:58:00,23.2,7.0,30.43,North,360,5.0,17.0,51,0.00,,,0.00,weatherlink.com 1.10,2013-02-18 04:58:00,